Tiempo cada hora Goetzenbruck

Hoy, 1 Diciembre, Martes

Tiempo Temperatura Precipitaciones Viento Presión Humedad
00:00 -2°C° 0 mm 5 mps 736 mmHg 86%
01:00 -2°C° 0.5 mm 4 mps 736 mmHg 89%
02:00 -2°C° 0.5 mm 4 mps 735 mmHg 92%
03:00 -2°C° 0.5 mm 4 mps 734 mmHg 95%
04:00 -2°C° 1.5 mm 4 mps 734 mmHg 96%
05:00 -2°C° 1.5 mm 4 mps 734 mmHg 97%
06:00 -1°C° 1.5 mm 3 mps 733 mmHg 98%
07:00 0°C° 0.1 mm 3 mps 733 mmHg 98%
08:00 0°C° 0.1 mm 3 mps 733 mmHg 98%
09:00 +2°C° 0.1 mm 2 mps 733 mmHg 98%
10:00 +2°C° 0.2 mm 2 mps 733 mmHg 98%
11:00 +2°C° 0.2 mm 2 mps 733 mmHg 99%
12:00 +3°C° 0.2 mm 2 mps 734 mmHg 99%
13:00 +3°C° 0.4 mm 2 mps 734 mmHg 99%
14:00 +2°C° 0.4 mm 2 mps 733 mmHg 99%
15:00 +3°C° 0.4 mm 1 mps 733 mmHg 99%
16:00 +3°C° 0.1 mm 1 mps 734 mmHg 99%
17:00 +3°C° 0.1 mm 1 mps 734 mmHg 99%
18:00 +3°C° 0.1 mm 1 mps 734 mmHg 99%
19:00 +3°C° 0.1 mm 1 mps 734 mmHg 98%
20:00 +3°C° 0.1 mm 1 mps 734 mmHg 98%
21:00 +2°C° 0.1 mm 0 mps 735 mmHg 98%
22:00 +3°C° 0 mm 1 mps 735 mmHg 98%
23:00 +3°C° 0 mm 1 mps 735 mmHg 98%

Mañana, 2 Diciembre, Miércoles

Tiempo Temperatura Precipitaciones Viento Presión Humedad
00:00 +3°C° 0 mm 1 mps 735 mmHg 98%
01:00 +3°C° 0 mm 1 mps 735 mmHg 98%
02:00 +3°C° 0 mm 1 mps 735 mmHg 98%
03:00 +3°C° 0 mm 1 mps 735 mmHg 98%
04:00 +2°C° 0 mm 2 mps 735 mmHg 98%
05:00 +2°C° 0 mm 2 mps 735 mmHg 97%
06:00 +2°C° 0 mm 2 mps 735 mmHg 97%
07:00 +2°C° 0 mm 2 mps 735 mmHg 96%
08:00 +2°C° 0 mm 2 mps 735 mmHg 95%
09:00 +1°C° 0 mm 3 mps 735 mmHg 94%
10:00 +1°C° 0 mm 3 mps 734 mmHg 93%
11:00 +2°C° 0 mm 2 mps 734 mmHg 91%
12:00 +3°C° 0 mm 2 mps 733 mmHg 89%
13:00 +2°C° 0 mm 2 mps 733 mmHg 89%
14:00 +2°C° 0 mm 2 mps 733 mmHg 89%
15:00 +3°C° 0 mm 1 mps 732 mmHg 89%
16:00 +3°C° 0 mm 1 mps 732 mmHg 89%
17:00 +2°C° 0 mm 1 mps 732 mmHg 89%
18:00 +2°C° 0 mm 1 mps 732 mmHg 89%
19:00 +2°C° 0 mm 1 mps 732 mmHg 88%
20:00 +1°C° 0 mm 0 mps 732 mmHg 87%
21:00 +1°C° 0 mm 0 mps 732 mmHg 87%
22:00 +1°C° 0 mm 0 mps 732 mmHg 87%
23:00 +1°C° 0 mm 0 mps 732 mmHg 87%

Pasado mañana, 3 Diciembre, Jueves

Tiempo Temperatura Precipitaciones Viento Presión Humedad
00:00 +2°C° 0 mm 1 mps 731 mmHg 87%
01:00 +1°C° 0 mm 1 mps 731 mmHg 87%
02:00 +1°C° 0 mm 1 mps 731 mmHg 88%
03:00 +1°C° 0 mm 1 mps 730 mmHg 88%
04:00 +1°C° 0 mm 1 mps 730 mmHg 89%
05:00 -1°C° 0 mm 2 mps 729 mmHg 90%
06:00 -1°C° 0 mm 2 mps 729 mmHg 90%
07:00 -1°C° 0 mm 2 mps 729 mmHg 90%
08:00 -1°C° 0 mm 2 mps 728 mmHg 90%
09:00 -1°C° 0 mm 2 mps 728 mmHg 89%
10:00 +1°C° 0 mm 2 mps 727 mmHg 89%
11:00 0°C° 0 mm 3 mps 726 mmHg 89%
12:00 +1°C° 0 mm 3 mps 726 mmHg 88%
13:00 +1°C° 0.1 mm 3 mps 725 mmHg 90%
14:00 +1°C° 0.1 mm 3 mps 724 mmHg 91%
15:00 0°C° 0.1 mm 3 mps 724 mmHg 92%
16:00 0°C° 0 mm 3 mps 723 mmHg 93%
17:00 +1°C° 0 mm 2 mps 722 mmHg 93%
18:00 +1°C° 0 mm 2 mps 722 mmHg 93%
19:00 +1°C° 0 mm 2 mps 721 mmHg 93%
20:00 +1°C° 0 mm 2 mps 720 mmHg 93%
21:00 +1°C° 0 mm 2 mps 720 mmHg 93%
22:00 +1°C° 0 mm 2 mps 719 mmHg 92%
23:00 +1°C° 0 mm 2 mps 718 mmHg 91%

4 Diciembre, Viernes

Tiempo Temperatura Precipitaciones Viento Presión Humedad
00:00 +1°C° 0 mm 2 mps 717 mmHg 90%
01:00 +1°C° 0.1 mm 2 mps 717 mmHg 89%
02:00 -1°C° 0.1 mm 2 mps 716 mmHg 89%
03:00 -1°C° 0.1 mm 2 mps 715 mmHg 88%
04:00 0°C° 0 mm 3 mps 715 mmHg 87%
05:00 0°C° 0 mm 3 mps 714 mmHg 86%
06:00 0°C° 0 mm 3 mps 714 mmHg 84%
07:00 0°C° 0.1 mm 3 mps 713 mmHg 84%
08:00 0°C° 0.1 mm 3 mps 713 mmHg 84%
09:00 0°C° 0.1 mm 3 mps 713 mmHg 84%
10:00 +2°C° 0 mm 2 mps 713 mmHg 82%
11:00 +3°C° 0 mm 2 mps 712 mmHg 81%
12:00 +5°C° 0 mm 1 mps 712 mmHg 79%
13:00 +4°C° 0.2 mm 1 mps 712 mmHg 82%
14:00 +4°C° 0.2 mm 1 mps 712 mmHg 85%
15:00 +3°C° 0.2 mm 1 mps 712 mmHg 89%
16:00 +3°C° 0 mm 1 mps 712 mmHg 89%
17:00 +2°C° 0 mm 1 mps 712 mmHg 90%
18:00 +1°C° 0 mm 2 mps 712 mmHg 90%
19:00 +2°C° 0.1 mm 1 mps 713 mmHg 91%
20:00 +2°C° 0.1 mm 1 mps 713 mmHg 92%
21:00 +2°C° 0.1 mm 1 mps 713 mmHg 93%
22:00 +2°C° 0.1 mm 1 mps 713 mmHg 94%
23:00 +2°C° 0.1 mm 1 mps 713 mmHg 95%

5 Diciembre, Sábado

Tiempo Temperatura Precipitaciones Viento Presión Humedad
00:00 +2°C° 0.1 mm 1 mps 713 mmHg 96%
01:00 +2°C° 0.1 mm 1 mps 714 mmHg 96%
02:00 +1°C° 0.1 mm 2 mps 714 mmHg 96%
03:00 +2°C° 0.1 mm 2 mps 714 mmHg 97%
04:00 +2°C° 0.1 mm 2 mps 715 mmHg 97%
05:00 +1°C° 0.1 mm 2 mps 715 mmHg 97%
06:00 +1°C° 0.1 mm 2 mps 715 mmHg 97%
07:00 +2°C° 0 mm 2 mps 716 mmHg 95%
08:00 +2°C° 0 mm 2 mps 716 mmHg 94%
09:00 +2°C° 0 mm 2 mps 717 mmHg 93%
10:00 +2°C° 0 mm 2 mps 717 mmHg 90%
11:00 +3°C° 0 mm 2 mps 717 mmHg 87%
12:00 +4°C° 0 mm 1 mps 717 mmHg 84%
13:00 +4°C° 0 mm 1 mps 717 mmHg 85%
14:00 +4°C° 0 mm 1 mps 717 mmHg 86%
15:00 +3°C° 0 mm 1 mps 718 mmHg 87%
16:00 +3°C° 0 mm 1 mps 718 mmHg 88%
17:00 +2°C° 0 mm 1 mps 718 mmHg 89%
18:00 0°C° 0 mm 0 mps 718 mmHg 90%
19:00 0°C° 0 mm 0 mps 718 mmHg 91%
20:00 -1°C° 0 mm 0 mps 718 mmHg 91%
21:00 -1°C° 0 mm 0 mps 718 mmHg 92%
22:00 0°C° 0 mm 1 mps 718 mmHg 93%
23:00 0°C° 0 mm 1 mps 718 mmHg 93%

6 Diciembre, Domingo

Tiempo Temperatura Precipitaciones Viento Presión Humedad
00:00 0°C° 0 mm 1 mps 718 mmHg 94%
01:00 0°C° 0 mm 1 mps 718 mmHg 94%
02:00 0°C° 0 mm 1 mps 718 mmHg 94%
03:00 0°C° 0 mm 1 mps 718 mmHg 94%
04:00 0°C° 0 mm 1 mps 718 mmHg 93%
05:00 0°C° 0 mm 1 mps 718 mmHg 92%
06:00 0°C° 0 mm 1 mps 718 mmHg 91%
07:00 +1°C° 0 mm 1 mps 719 mmHg 90%
08:00 -1°C° 0 mm 2 mps 719 mmHg 88%
09:00 +1°C° 0 mm 2 mps 719 mmHg 87%
10:00 +1°C° 0 mm 2 mps 720 mmHg 86%
11:00 +1°C° 0 mm 3 mps 720 mmHg 85%
12:00 +2°C° 0 mm 3 mps 720 mmHg 84%
13:00 +1°C° 0 mm 3 mps 721 mmHg 88%
14:00 0°C° 0 mm 4 mps 721 mmHg 91%
15:00 0°C° 0 mm 4 mps 722 mmHg 94%
16:00 0°C° 0.1 mm 4 mps 722 mmHg 93%
17:00 0°C° 0.1 mm 4 mps 723 mmHg 92%
18:00 0°C° 0.1 mm 4 mps 723 mmHg 92%
19:00 -1°C° 0.1 mm 5 mps 723 mmHg 93%
20:00 -1°C° 0.1 mm 5 mps 724 mmHg 94%
21:00 -1°C° 0.1 mm 5 mps 724 mmHg 95%
22:00 -1°C° 0.1 mm 5 mps 725 mmHg 94%
23:00 -1°C° 0.1 mm 5 mps 725 mmHg 92%
Mostrar más

Necesitamos Su Consentimiento

Meteoprog y nuestros Proveedores de Servicios pueden almacenar y acceder a sus datos personales como cookies, identificadores de dispositivo u otras tecnologías similares de su dispositivo y procesar dichos datos para personalizar contenido y anuncios, además de ofrecer funciones de redes sociales y analizar el tráfico.

  • Almacenar y/o acceder a información en su dispositivo

    Se puede almacenar o acceder a cookies, identificadores de dispositivo u otra información de su dispositivo para los fines anteriormente indicados.

  • Anuncios y contenido personalizados, medición de anuncios y contenido, percepciones del público, y desarrollo de productos

    Los anuncios y el contenido pueden personalizarse en base a su perfil. Se pueden añadir más datos para personalizar mejor los anuncios y contenidos. Se puede medir el rendimiento de los anuncios y contenidos. Se puede obtener la percepción sobre el público que ha visto los anuncios y contenidos. Dichos datos pueden usarse para desarrollar o mejorar la experiencia del usuario, sistemas y software.

Al hacer clic en ‘Estoy De Acuerdo’ usted permitirá el uso de las cookies, identificadores de dispositivo, balizas web u otras tecnologías similares indicadas. Su configuración puede cambiarse desde el navegador de su dispositivo.

Para ciertos fines, los intereses legítimos pueden ser considerados por encima del consentimiento. Puede leer más sobre ello en nuestra Política de Privacidad y Cookies.